TimeCST,TemperatureF,Dew PointF,Humidity,Sea Level PressureIn,VisibilityMPH,Wind Direction,Wind SpeedMPH,Gust SpeedMPH,PrecipitationIn,Events,Conditions,WindDirDegrees,DateUTC
12:12 AM,3.2,-0.4,85,30.32,10.0,North,5.8,-,N/A,,Overcast,360,2014-02-04 06:12:00
12:32 AM,5.0,-0.4,78,30.32,10.0,North,5.8,-,N/A,,Overcast,10,2014-02-04 06:32:00
12:53 AM,6.8,1.4,79,30.32,10.0,North,6.9,-,N/A,,Overcast,10,2014-02-04 06:53:00
1:12 AM,6.8,1.4,79,30.32,10.0,North,4.6,-,N/A,,Overcast,360,2014-02-04 07:12:00
1:32 AM,8.6,1.4,73,30.33,10.0,North,6.9,-,N/A,Snow,Light Snow,360,2014-02-04 07:32:00
1:52 AM,8.6,3.2,79,30.34,10.0,NNW,4.6,-,N/A,Snow,Light Snow,340,2014-02-04 07:52:00
2:12 AM,8.6,3.2,79,30.34,10.0,North,4.6,-,N/A,Snow,Light Snow,360,2014-02-04 08:12:00
2:33 AM,8.6,3.2,79,30.35,10.0,North,5.8,-,N/A,Snow,Light Snow,360,2014-02-04 08:33:00
2:52 AM,8.6,3.2,79,30.35,10.0,NNE,4.6,-,N/A,Snow,Light Snow,20,2014-02-04 08:52:00
3:12 AM,8.6,3.2,79,30.34,7.0,North,6.9,-,N/A,Snow,Light Snow,10,2014-02-04 09:12:00
3:33 AM,8.6,3.2,79,30.34,10.0,North,8.1,-,N/A,,Overcast,360,2014-02-04 09:33:00
3:52 AM,8.6,3.2,79,30.35,10.0,NNW,8.1,-,N/A,,Overcast,340,2014-02-04 09:52:00
4:12 AM,6.8,1.4,79,30.35,10.0,NNW,10.4,-,N/A,,Overcast,340,2014-02-04 10:12:00
4:33 AM,5.0,1.4,85,30.36,10.0,NNW,10.4,-,N/A,,Mostly Cloudy,340,2014-02-04 10:33:00
4:52 AM,5.0,1.4,85,30.36,10.0,NNW,12.7,-,N/A,,Scattered Clouds,340,2014-02-04 10:52:00
5:12 AM,3.2,1.4,92,30.36,10.0,NNW,13.8,-,N/A,,Scattered Clouds,330,2014-02-04 11:12:00
5:33 AM,3.2,-0.4,85,30.36,10.0,NNW,13.8,-,N/A,,Scattered Clouds,330,2014-02-04 11:33:00
5:52 AM,1.4,-0.4,92,30.37,10.0,NNW,13.8,-,N/A,,Clear,330,2014-02-04 11:52:00
6:12 AM,1.4,-2.2,85,30.37,10.0,NNW,16.1,-,N/A,,Clear,330,2014-02-04 12:12:00
6:33 AM,1.4,-2.2,85,30.37,10.0,NNW,16.1,-,N/A,,Clear,330,2014-02-04 12:33:00
6:52 AM,1.4,-2.2,85,30.38,10.0,NNW,15.0,-,N/A,,Clear,330,2014-02-04 12:52:00
7:12 AM,-0.4,-4.0,85,30.39,10.0,NNW,16.1,-,N/A,,Scattered Clouds,330,2014-02-04 13:12:00
7:33 AM,-0.4,-5.8,78,30.39,10.0,NNW,16.1,-,N/A,,Scattered Clouds,330,2014-02-04 13:33:00
7:52 AM,-0.4,-5.8,78,30.40,10.0,NNW,18.4,-,N/A,,Scattered Clouds,340,2014-02-04 13:52:00
8:12 AM,-0.4,-5.8,78,30.40,10.0,NNW,17.3,-,N/A,,Mostly Cloudy,340,2014-02-04 14:12:00
8:33 AM,-0.4,-5.8,78,30.41,10.0,NNW,16.1,-,N/A,,Scattered Clouds,340,2014-02-04 14:33:00
8:52 AM,-2.2,-5.8,85,30.41,10.0,NNW,17.3,-,N/A,,Clear,340,2014-02-04 14:52:00
9:12 AM,-0.4,-5.8,78,30.41,10.0,North,16.1,-,N/A,,Clear,350,2014-02-04 15:12:00
9:33 AM,-0.4,-5.8,78,30.42,10.0,North,15.0,-,N/A,,Clear,350,2014-02-04 15:33:00
9:52 AM,-0.4,-7.6,72,30.41,10.0,North,17.3,-,N/A,,Clear,350,2014-02-04 15:52:00
10:12 AM,-0.4,-7.6,72,30.41,10.0,North,18.4,-,N/A,,Clear,350,2014-02-04 16:12:00
10:33 AM,1.4,-7.6,66,30.41,10.0,North,19.6,-,N/A,,Clear,350,2014-02-04 16:33:00
10:52 AM,1.4,-7.6,66,30.41,10.0,North,20.7,-,N/A,,Clear,350,2014-02-04 16:52:00
11:12 AM,1.4,-7.6,66,30.41,10.0,North,18.4,-,N/A,,Clear,350,2014-02-04 17:12:00
11:33 AM,1.4,-7.6,66,30.41,10.0,North,19.6,-,N/A,,Clear,350,2014-02-04 17:33:00
11:52 AM,1.4,-5.8,72,30.41,10.0,North,19.6,-,N/A,,Clear,350,2014-02-04 17:52:00
12:12 PM,3.2,-5.8,66,30.41,10.0,North,20.7,-,N/A,,Scattered Clouds,350,2014-02-04 18:12:00
12:33 PM,3.2,-5.8,66,30.39,10.0,North,21.9,-,N/A,,Mostly Cloudy,350,2014-02-04 18:33:00
12:52 PM,3.2,-5.8,66,30.40,10.0,North,20.7,-,N/A,,Overcast,350,2014-02-04 18:52:00
1:12 PM,3.2,-5.8,66,30.38,10.0,North,20.7,-,N/A,,Overcast,360,2014-02-04 19:12:00
1:33 PM,3.2,-5.8,66,30.39,10.0,North,20.7,-,N/A,,Overcast,350,2014-02-04 19:33:00
1:52 PM,3.2,-5.8,66,30.37,10.0,North,23.0,-,N/A,,Overcast,350,2014-02-04 19:52:00
2:12 PM,3.2,-5.8,66,30.37,10.0,NNW,23.0,-,N/A,,Overcast,340,2014-02-04 20:12:00
2:33 PM,3.2,-5.8,66,30.38,10.0,North,20.7,-,N/A,,Overcast,350,2014-02-04 20:33:00
2:52 PM,3.2,-5.8,66,30.37,10.0,NNW,23.0,-,N/A,,Overcast,340,2014-02-04 20:52:00
3:12 PM,3.2,-5.8,66,30.37,10.0,North,21.9,27.6,N/A,,Overcast,350,2014-02-04 21:12:00
3:33 PM,3.2,-5.8,66,30.38,10.0,North,19.6,25.3,N/A,,Overcast,350,2014-02-04 21:33:00
3:52 PM,3.2,-5.8,66,30.39,10.0,North,21.9,-,N/A,,Overcast,360,2014-02-04 21:52:00
4:12 PM,3.2,-5.8,66,30.38,10.0,North,18.4,-,N/A,,Overcast,350,2014-02-04 22:12:00
4:33 PM,1.4,-5.8,72,30.38,10.0,North,23.0,-,N/A,,Scattered Clouds,350,2014-02-04 22:33:00
4:52 PM,1.4,-5.8,72,30.38,10.0,North,20.7,-,N/A,,Clear,350,2014-02-04 22:52:00
5:12 PM,1.4,-5.8,72,30.38,10.0,North,19.6,-,N/A,,Clear,350,2014-02-04 23:12:00
5:33 PM,1.4,-7.6,66,30.37,10.0,North,20.7,-,N/A,,Clear,350,2014-02-04 23:33:00
5:52 PM,1.4,-7.6,66,30.38,10.0,North,23.0,-,N/A,,Mostly Cloudy,350,2014-02-04 23:52:00
6:12 PM,1.4,-7.6,66,30.38,10.0,North,23.0,-,N/A,,Overcast,350,2014-02-05 00:12:00
6:33 PM,1.4,-7.6,66,30.39,10.0,North,20.7,-,N/A,,Overcast,350,2014-02-05 00:33:00
6:52 PM,1.4,-7.6,66,30.40,10.0,NNW,20.7,-,N/A,,Overcast,340,2014-02-05 00:52:00
7:12 PM,1.4,-5.8,72,30.40,10.0,NNW,24.2,-,N/A,,Overcast,340,2014-02-05 01:12:00
7:33 PM,-0.4,-7.6,72,30.40,10.0,NNW,24.2,27.6,N/A,,Overcast,340,2014-02-05 01:33:00
7:52 PM,-0.4,-7.6,72,30.40,10.0,NNW,21.9,-,N/A,,Overcast,340,2014-02-05 01:52:00
8:12 PM,-0.4,-7.6,72,30.41,10.0,NNW,21.9,-,N/A,,Overcast,340,2014-02-05 02:12:00
8:33 PM,-0.4,-7.6,72,30.41,10.0,NNW,25.3,29.9,N/A,,Overcast,340,2014-02-05 02:33:00
8:52 PM,-0.4,-7.6,72,30.40,10.0,NNW,23.0,-,N/A,,Overcast,340,2014-02-05 02:52:00
9:12 PM,-0.4,-7.6,72,30.41,10.0,NNW,20.7,27.6,N/A,,Overcast,340,2014-02-05 03:12:00
9:33 PM,-0.4,-7.6,72,30.40,10.0,NNW,25.3,29.9,N/A,,Overcast,340,2014-02-05 03:33:00
9:52 PM,-2.2,-9.4,71,30.41,10.0,NNW,25.3,-,N/A,,Overcast,340,2014-02-05 03:52:00
10:12 PM,-2.2,-9.4,71,30.42,10.0,NNW,24.2,-,N/A,,Overcast,340,2014-02-05 04:12:00
10:32 PM,-2.2,-7.6,78,30.43,10.0,NNW,21.9,27.6,N/A,,Overcast,330,2014-02-05 04:32:00
10:52 PM,-2.2,-7.6,78,30.43,10.0,NNW,21.9,-,N/A,,Overcast,330,2014-02-05 04:52:00
11:12 PM,-2.2,-7.6,78,30.43,10.0,NNW,23.0,-,N/A,,Overcast,330,2014-02-05 05:12:00
11:32 PM,-2.2,-7.6,78,30.44,10.0,NNW,21.9,-,N/A,,Overcast,330,2014-02-05 05:32:00
11:52 PM,-2.2,-9.4,71,30.44,10.0,NNW,18.4,-,N/A,,Overcast,340,2014-02-05 05:52:00